Wetterdaten: Montag, 08.02.2016
Datum Zeit Temp. A. Feuchte A. Luftdruck Regen Wind Richtung Richtung Sonnenschein ET UV Solar Taupunkt Windchill Windben Empfang
08.02.2016 00:00 6,1 C 86 % 1013,1 hPa 0,0 l/m 6,4 km/h (2 Bft) SW 232 0 min 0,000 mm 0,0 UV-I 0 W/m 3,9 C 6,1 C 12,9 km/h (3 Bft) 99,17 %
08.02.2016 00:05 6,1 C 86 % 1013,2 hPa 0,0 l/m 5,1 km/h (1 Bft) S 169 0 min 0,000 mm 0,0 UV-I 0 W/m 3,9 C 6,1 C 9,7 km/h (2 Bft) 98,17 %
08.02.2016 00:10 6,1 C 86 % 1013,3 hPa 0,0 l/m 6,3 km/h (2 Bft) S-SW 202 0 min 0,000 mm 0,0 UV-I 0 W/m 3,9 C 6,1 C 11,3 km/h (2 Bft) 100,00 %
08.02.2016 00:15 6,1 C 86 % 1013,3 hPa 0,0 l/m 6,0 km/h (2 Bft) S-SW 200 0 min 0,000 mm 0,0 UV-I 0 W/m 3,9 C 6,1 C 9,7 km/h (2 Bft) 99,15 %
08.02.2016 00:20 6,1 C 86 % 1013,3 hPa 0,0 l/m 6,7 km/h (2 Bft) SW 231 0 min 0,000 mm 0,0 UV-I 0 W/m 3,9 C 5,9 C 11,3 km/h (2 Bft) 95,73 %
08.02.2016 00:25 6,1 C 86 % 1013,2 hPa 0,0 l/m 6,3 km/h (2 Bft) SW 229 0 min 0,000 mm 0,0 UV-I 0 W/m 3,9 C 6,1 C 12,9 km/h (3 Bft) 100,00 %
08.02.2016 00:30 6,0 C 86 % 1013,3 hPa 0,0 l/m 7,3 km/h (2 Bft) W-SW 237 0 min 0,000 mm 0,0 UV-I 0 W/m 3,8 C 5,2 C 11,3 km/h (2 Bft) 98,31 %
08.02.2016 00:35 5,9 C 86 % 1013,4 hPa 0,0 l/m 7,6 km/h (2 Bft) SW 231 0 min 0,000 mm 0,0 UV-I 0 W/m 3,7 C 4,9 C 11,3 km/h (2 Bft) 100,00 %
08.02.2016 00:40 6,0 C 85 % 1013,6 hPa 0,0 l/m 8,9 km/h (2 Bft) W-SW 238 0 min 0,000 mm 0,0 UV-I 0 W/m 3,7 C 4,0 C 14,5 km/h (3 Bft) 97,52 %
08.02.2016 00:45 6,1 C 85 % 1013,7 hPa 0,0 l/m 7,8 km/h (2 Bft) W-SW 239 0 min 0,000 mm 0,0 UV-I 0 W/m 3,8 C 4,9 C 12,9 km/h (3 Bft) 96,58 %
08.02.2016 00:50 6,1 C 84 % 1013,7 hPa 0,0 l/m 8,9 km/h (2 Bft) W-SW 246 0 min 0,000 mm 0,0 UV-I 0 W/m 3,6 C 4,1 C 16,1 km/h (3 Bft) 97,46 %
08.02.2016 00:55 6,2 C 84 % 1013,7 hPa 0,0 l/m 11,9 km/h (2 Bft) W-SW 254 0 min 0,000 mm 0,0 UV-I 0 W/m 3,7 C 2,2 C 16,1 km/h (3 Bft) 96,33 %
08.02.2016 01:00 6,3 C 83 % 1013,6 hPa 0,0 l/m 13,3 km/h (3 Bft) W 265 0 min 0,025 mm 0,0 UV-I 0 W/m 3,6 C 1,5 C 22,5 km/h (4 Bft) 97,44 %
08.02.2016 01:05 6,6 C 82 % 1013,7 hPa 0,0 l/m 13,6 km/h (3 Bft) W-SW 258 0 min 0,000 mm 0,0 UV-I 0 W/m 3,8 C 1,7 C 20,9 km/h (4 Bft) 96,61 %
08.02.2016 01:10 6,7 C 81 % 1013,6 hPa 0,0 l/m 12,3 km/h (3 Bft) W 272 0 min 0,000 mm 0,0 UV-I 0 W/m 3,7 C 2,5 C 20,9 km/h (4 Bft) 95,76 %
08.02.2016 01:15 6,7 C 81 % 1013,7 hPa 0,0 l/m 13,7 km/h (3 Bft) W 262 0 min 0,000 mm 0,0 UV-I 0 W/m 3,7 C 1,8 C 24,1 km/h (4 Bft) 97,44 %
08.02.2016 01:20 6,7 C 80 % 1013,6 hPa 0,0 l/m 12,0 km/h (2 Bft) W-SW 257 0 min 0,000 mm 0,0 UV-I 0 W/m 3,5 C 2,7 C 19,3 km/h (3 Bft) 98,35 %
08.02.2016 01:25 6,8 C 80 % 1013,6 hPa 0,0 l/m 11,1 km/h (2 Bft) W-SW 252 0 min 0,000 mm 0,0 UV-I 0 W/m 3,6 C 3,4 C 19,3 km/h (3 Bft) 95,73 %
08.02.2016 01:30 6,7 C 80 % 1013,6 hPa 0,0 l/m 10,5 km/h (2 Bft) W-SW 253 0 min 0,000 mm 0,0 UV-I 0 W/m 3,5 C 3,6 C 17,7 km/h (3 Bft) 99,17 %
08.02.2016 01:35 6,7 C 80 % 1013,6 hPa 0,0 l/m 12,0 km/h (2 Bft) W-SW 248 0 min 0,000 mm 0,0 UV-I 0 W/m 3,5 C 2,7 C 17,7 km/h (3 Bft) 98,17 %
08.02.2016 01:40 6,7 C 80 % 1013,7 hPa 0,0 l/m 10,5 km/h (2 Bft) W-SW 252 0 min 0,000 mm 0,0 UV-I 0 W/m 3,5 C 3,6 C 17,7 km/h (3 Bft) 100,00 %
08.02.2016 01:45 6,6 C 80 % 1013,6 hPa 0,0 l/m 11,1 km/h (2 Bft) W 261 0 min 0,000 mm 0,0 UV-I 0 W/m 3,4 C 3,1 C 16,1 km/h (3 Bft) 100,00 %
08.02.2016 01:50 6,6 C 80 % 1013,7 hPa 0,0 l/m 10,0 km/h (2 Bft) W-SW 254 0 min 0,000 mm 0,0 UV-I 0 W/m 3,4 C 3,8 C 16,1 km/h (3 Bft) 98,31 %
08.02.2016 01:55 6,6 C 81 % 1013,9 hPa 0,0 l/m 9,0 km/h (2 Bft) SW 229 0 min 0,000 mm 0,0 UV-I 0 W/m 3,6 C 4,5 C 14,5 km/h (3 Bft) 97,50 %
08.02.2016 02:00 6,5 C 81 % 1013,9 hPa 0,0 l/m 7,9 km/h (2 Bft) W-SW 257 0 min 0,026 mm 0,0 UV-I 0 W/m 3,5 C 5,3 C 12,9 km/h (3 Bft) 99,15 %
08.02.2016 02:05 6,4 C 82 % 1014,0 hPa 0,0 l/m 8,5 km/h (2 Bft) W-SW 240 0 min 0,000 mm 0,0 UV-I 0 W/m 3,6 C 4,7 C 14,5 km/h (3 Bft) 100,00 %
08.02.2016 02:10 6,2 C 82 % 1014,0 hPa 0,0 l/m 7,7 km/h (2 Bft) SW 223 0 min 0,000 mm 0,0 UV-I 0 W/m 3,4 C 5,1 C 16,1 km/h (3 Bft) 100,00 %
08.02.2016 02:15 6,2 C 82 % 1014,0 hPa 0,0 l/m 8,5 km/h (2 Bft) SW 235 0 min 0,000 mm 0,0 UV-I 0 W/m 3,4 C 4,5 C 17,7 km/h (3 Bft) 100,00 %
08.02.2016 02:20 6,3 C 81 % 1014,0 hPa 0,0 l/m 10,0 km/h (2 Bft) W-SW 250 0 min 0,000 mm 0,0 UV-I 0 W/m 3,3 C 3,5 C 19,3 km/h (3 Bft) 99,17 %
08.02.2016 02:25 6,3 C 81 % 1014,0 hPa 0,0 l/m 8,3 km/h (2 Bft) W-SW 244 0 min 0,000 mm 0,0 UV-I 0 W/m 3,3 C 4,7 C 16,1 km/h (3 Bft) 99,15 %
08.02.2016 02:30 6,3 C 81 % 1014,0 hPa 0,0 l/m 7,3 km/h (2 Bft) W 269 0 min 0,000 mm 0,0 UV-I 0 W/m 3,3 C 5,5 C 12,9 km/h (3 Bft) 98,31 %
08.02.2016 02:35 6,3 C 81 % 1014,1 hPa 0,0 l/m 7,2 km/h (2 Bft) W 262 0 min 0,000 mm 0,0 UV-I 0 W/m 3,3 C 5,6 C 14,5 km/h (3 Bft) 97,44 %
08.02.2016 02:40 6,3 C 82 % 1014,1 hPa 0,0 l/m 8,3 km/h (2 Bft) W-SW 254 0 min 0,000 mm 0,0 UV-I 0 W/m 3,5 C 4,7 C 16,1 km/h (3 Bft) 98,35 %
08.02.2016 02:45 6,1 C 83 % 1014,1 hPa 0,0 l/m 10,8 km/h (2 Bft) W-SW 246 0 min 0,000 mm 0,0 UV-I 0 W/m 3,4 C 2,8 C 17,7 km/h (3 Bft) 97,44 %
08.02.2016 02:50 6,0 C 83 % 1014,1 hPa 0,0 l/m 11,9 km/h (2 Bft) W-SW 250 0 min 0,000 mm 0,0 UV-I 0 W/m 3,3 C 2,0 C 19,3 km/h (3 Bft) 97,25 %
08.02.2016 02:55 5,8 C 84 % 1014,2 hPa 0,0 l/m 11,2 km/h (2 Bft) SW 226 0 min 0,000 mm 0,0 UV-I 0 W/m 3,3 C 2,2 C 17,7 km/h (3 Bft) 97,46 %
08.02.2016 03:00 5,7 C 84 % 1014,2 hPa 0,0 l/m 11,6 km/h (2 Bft) S-SW 213 0 min 0,025 mm 0,0 UV-I 0 W/m 3,2 C 1,8 C 17,7 km/h (3 Bft) 96,75 %
08.02.2016 03:05 5,6 C 86 % 1014,2 hPa 0,0 l/m 11,2 km/h (2 Bft) S-SW 209 0 min 0,000 mm 0,0 UV-I 0 W/m 3,4 C 1,9 C 16,1 km/h (3 Bft) 95,76 %
08.02.2016 03:10 5,4 C 87 % 1014,1 hPa 0,0 l/m 10,6 km/h (2 Bft) S-SW 200 0 min 0,000 mm 0,0 UV-I 0 W/m 3,4 C 2,1 C 16,1 km/h (3 Bft) 96,43 %
08.02.2016 03:15 5,4 C 88 % 1014,1 hPa 0,0 l/m 10,8 km/h (2 Bft) S 173 0 min 0,000 mm 0,0 UV-I 0 W/m 3,6 C 2,0 C 17,7 km/h (3 Bft) 96,67 %
08.02.2016 03:20 5,3 C 88 % 1014,0 hPa 0,0 l/m 12,6 km/h (3 Bft) SW 236 0 min 0,000 mm 0,0 UV-I 0 W/m 3,5 C 0,7 C 19,3 km/h (3 Bft) 99,17 %
08.02.2016 03:25 5,4 C 88 % 1014,0 hPa 0,0 l/m 9,2 km/h (2 Bft) SW 225 0 min 0,000 mm 0,0 UV-I 0 W/m 3,6 C 3,1 C 14,5 km/h (3 Bft) 99,06 %
08.02.2016 03:30 5,4 C 88 % 1014,0 hPa 0,0 l/m 11,6 km/h (2 Bft) S 185 0 min 0,000 mm 0,0 UV-I 0 W/m 3,6 C 1,5 C 17,7 km/h (3 Bft) 98,29 %
08.02.2016 03:35 5,3 C 88 % 1014,1 hPa 0,0 l/m 10,2 km/h (2 Bft) S 188 0 min 0,000 mm 0,0 UV-I 0 W/m 3,5 C 2,3 C 19,3 km/h (3 Bft) 99,15 %
08.02.2016 03:40 5,3 C 88 % 1014,1 hPa 0,0 l/m 11,4 km/h (2 Bft) S 187 0 min 0,000 mm 0,0 UV-I 0 W/m 3,5 C 1,5 C 19,3 km/h (3 Bft) 100,00 %
08.02.2016 03:45 5,3 C 88 % 1014,1 hPa 0,0 l/m 10,6 km/h (2 Bft) S-SW 196 0 min 0,000 mm 0,0 UV-I 0 W/m 3,5 C 2,0 C 20,9 km/h (4 Bft) 97,52 %
08.02.2016 03:50 5,2 C 88 % 1014,0 hPa 0,0 l/m 11,3 km/h (2 Bft) SW 219 0 min 0,000 mm 0,0 UV-I 0 W/m 3,4 C 1,4 C 19,3 km/h (3 Bft) 99,17 %
08.02.2016 03:55 5,1 C 88 % 1014,0 hPa 0,0 l/m 12,5 km/h (3 Bft) SW 216 0 min 0,000 mm 0,0 UV-I 0 W/m 3,3 C 0,6 C 22,5 km/h (4 Bft) 100,00 %
08.02.2016 04:00 5,1 C 88 % 1014,0 hPa 0,0 l/m 12,4 km/h (3 Bft) SW 220 0 min 0,026 mm 0,0 UV-I 0 W/m 3,3 C 0,6 C 25,7 km/h (4 Bft) 97,46 %
08.02.2016 04:05 5,1 C 88 % 1014,0 hPa 0,0 l/m 13,6 km/h (3 Bft) S 178 0 min 0,000 mm 0,0 UV-I 0 W/m 3,3 C -0,1 C 20,9 km/h (4 Bft) 98,00 %
08.02.2016 04:10 5,1 C 89 % 1013,9 hPa 0,0 l/m 9,4 km/h (2 Bft) S-SO 148 0 min 0,000 mm 0,0 UV-I 0 W/m 3,4 C 2,6 C 16,1 km/h (3 Bft) 98,29 %
08.02.2016 04:15 5,0 C 88 % 1013,8 hPa 0,0 l/m 12,2 km/h (2 Bft) S 186 0 min 0,000 mm 0,0 UV-I 0 W/m 3,2 C 0,6 C 20,9 km/h (4 Bft) 99,15 %
08.02.2016 04:20 5,0 C 87 % 1013,7 hPa 0,0 l/m 11,5 km/h (2 Bft) S-SW 200 0 min 0,000 mm 0,0 UV-I 0 W/m 3,0 C 1,1 C 24,1 km/h (4 Bft) 100,00 %
08.02.2016 04:25 5,1 C 87 % 1013,7 hPa 0,0 l/m 12,1 km/h (2 Bft) S-SW 192 0 min 0,000 mm 0,0 UV-I 0 W/m 3,1 C 0,8 C 20,9 km/h (4 Bft) 98,31 %
08.02.2016 04:30 5,1 C 88 % 1013,6 hPa 0,0 l/m 10,9 km/h (2 Bft) S-SW 194 0 min 0,000 mm 0,0 UV-I 0 W/m 3,3 C 1,6 C 19,3 km/h (3 Bft) 99,15 %
08.02.2016 04:35 5,0 C 87 % 1013,4 hPa 0,0 l/m 11,1 km/h (2 Bft) S-SW 192 0 min 0,000 mm 0,0 UV-I 0 W/m 3,0 C 1,3 C 22,5 km/h (4 Bft) 99,07 %
08.02.2016 04:40 5,0 C 88 % 1013,4 hPa 0,0 l/m 11,5 km/h (2 Bft) S 186 0 min 0,000 mm 0,0 UV-I 0 W/m 3,2 C 1,1 C 20,9 km/h (4 Bft) 99,19 %
08.02.2016 04:45 5,0 C 87 % 1013,5 hPa 0,0 l/m 13,3 km/h (3 Bft) S 175 0 min 0,000 mm 0,0 UV-I 0 W/m 3,0 C -0,0 C 20,9 km/h (4 Bft) 100,00 %
08.02.2016 04:50 5,0 C 87 % 1013,6 hPa 0,0 l/m 11,9 km/h (2 Bft) S-SW 198 0 min 0,000 mm 0,0 UV-I 0 W/m 3,0 C 0,8 C 17,7 km/h (3 Bft) 95,83 %
08.02.2016 04:55 5,1 C 86 % 1013,6 hPa 0,0 l/m 14,2 km/h (3 Bft) S-SW 212 0 min 0,000 mm 0,0 UV-I 0 W/m 3,0 C -0,4 C 24,1 km/h (4 Bft) 97,46 %
08.02.2016 05:00 5,1 C 86 % 1013,5 hPa 0,0 l/m 12,3 km/h (3 Bft) S-SW 193 0 min 0,025 mm 0,0 UV-I 0 W/m 3,0 C 0,7 C 19,3 km/h (3 Bft) 97,44 %
08.02.2016 05:05 5,1 C 86 % 1013,5 hPa 0,0 l/m 12,5 km/h (3 Bft) S 188 0 min 0,000 mm 0,0 UV-I 0 W/m 3,0 C 0,6 C 20,9 km/h (4 Bft) 97,52 %
08.02.2016 05:10 5,1 C 85 % 1013,4 hPa 0,0 l/m 9,5 km/h (2 Bft) S-SO 159 0 min 0,000 mm 0,0 UV-I 0 W/m 2,8 C 2,5 C 17,7 km/h (3 Bft) 97,46 %
08.02.2016 05:15 5,1 C 84 % 1013,4 hPa 0,0 l/m 9,1 km/h (2 Bft) S-SO 160 0 min 0,000 mm 0,0 UV-I 0 W/m 2,6 C 2,8 C 17,7 km/h (3 Bft) 95,80 %
08.02.2016 05:20 5,1 C 84 % 1013,2 hPa 0,0 l/m 10,3 km/h (2 Bft) S-SO 160 0 min 0,000 mm 0,0 UV-I 0 W/m 2,6 C 2,0 C 19,3 km/h (3 Bft) 98,11 %
08.02.2016 05:25 5,1 C 84 % 1013,2 hPa 0,0 l/m 10,5 km/h (2 Bft) SO 133 0 min 0,000 mm 0,0 UV-I 0 W/m 2,6 C 1,8 C 17,7 km/h (3 Bft) 96,75 %
08.02.2016 05:30 5,1 C 84 % 1013,1 hPa 0,0 l/m 10,3 km/h (2 Bft) S-SO 161 0 min 0,000 mm 0,0 UV-I 0 W/m 2,6 C 2,0 C 20,9 km/h (4 Bft) 100,00 %
08.02.2016 05:35 5,2 C 83 % 1012,9 hPa 0,0 l/m 10,0 km/h (2 Bft) S 175 0 min 0,000 mm 0,0 UV-I 0 W/m 2,6 C 2,3 C 19,3 km/h (3 Bft) 99,10 %
08.02.2016 05:40 5,2 C 83 % 1012,7 hPa 0,0 l/m 11,0 km/h (2 Bft) S-SO 154 0 min 0,000 mm 0,0 UV-I 0 W/m 2,6 C 1,6 C 25,7 km/h (4 Bft) 97,44 %
08.02.2016 05:45 5,3 C 83 % 1012,5 hPa 0,0 l/m 11,2 km/h (2 Bft) S 169 0 min 0,000 mm 0,0 UV-I 0 W/m 2,7 C 1,6 C 20,9 km/h (4 Bft) 99,15 %
08.02.2016 05:50 5,3 C 82 % 1012,4 hPa 0,0 l/m 9,6 km/h (2 Bft) S-SO 158 0 min 0,000 mm 0,0 UV-I 0 W/m 2,5 C 2,7 C 17,7 km/h (3 Bft) 99,17 %
08.02.2016 05:55 5,3 C 82 % 1012,4 hPa 0,0 l/m 9,7 km/h (2 Bft) S 180 0 min 0,000 mm 0,0 UV-I 0 W/m 2,5 C 2,6 C 22,5 km/h (4 Bft) 100,00 %
08.02.2016 06:00 5,3 C 82 % 1012,4 hPa 0,0 l/m 9,8 km/h (2 Bft) S-SO 167 0 min 0,025 mm 0,0 UV-I 0 W/m 2,5 C 2,5 C 19,3 km/h (3 Bft) 99,15 %
08.02.2016 06:05 5,3 C 81 % 1012,2 hPa 0,0 l/m 7,8 km/h (2 Bft) S-SO 168 0 min 0,000 mm 0,0 UV-I 0 W/m 2,3 C 4,1 C 17,7 km/h (3 Bft) 99,06 %
08.02.2016 06:10 5,3 C 81 % 1012,1 hPa 0,0 l/m 8,0 km/h (2 Bft) S 171 0 min 0,000 mm 0,0 UV-I 0 W/m 2,3 C 3,9 C 19,3 km/h (3 Bft) 99,15 %
08.02.2016 06:15 5,3 C 81 % 1012,0 hPa 0,0 l/m 6,9 km/h (2 Bft) SO 146 0 min 0,000 mm 0,0 UV-I 0 W/m 2,3 C 4,9 C 14,5 km/h (3 Bft) 97,46 %
08.02.2016 06:20 5,3 C 81 % 1012,0 hPa 0,0 l/m 7,5 km/h (2 Bft) S-SO 153 0 min 0,000 mm 0,0 UV-I 0 W/m 2,3 C 4,3 C 16,1 km/h (3 Bft) 98,33 %
08.02.2016 06:25 5,3 C 81 % 1011,9 hPa 0,0 l/m 5,9 km/h (2 Bft) S-SO 161 0 min 0,000 mm 0,0 UV-I 0 W/m 2,3 C 5,3 C 12,9 km/h (3 Bft) 100,00 %
08.02.2016 06:30 5,3 C 81 % 1011,8 hPa 0,0 l/m 7,0 km/h (2 Bft) S-SO 150 0 min 0,000 mm 0,0 UV-I 0 W/m 2,3 C 4,8 C 19,3 km/h (3 Bft) 100,00 %
08.02.2016 06:35 5,4 C 81 % 1011,8 hPa 0,0 l/m 8,1 km/h (2 Bft) S-SO 153 0 min 0,000 mm 0,0 UV-I 0 W/m 2,4 C 3,9 C 17,7 km/h (3 Bft) 96,49 %
08.02.2016 06:40 5,4 C 80 % 1011,8 hPa 0,0 l/m 6,0 km/h (2 Bft) S-SO 163 0 min 0,000 mm 0,0 UV-I 0 W/m 2,2 C 5,4 C 14,5 km/h (3 Bft) 98,31 %
08.02.2016 06:45 5,3 C 81 % 1011,8 hPa 0,0 l/m 5,7 km/h (1 Bft) O-SO 122 0 min 0,000 mm 0,0 UV-I 0 W/m 2,3 C 5,3 C 11,3 km/h (2 Bft) 96,69 %
08.02.2016 06:50 5,3 C 81 % 1011,9 hPa 0,0 l/m 4,9 km/h (1 Bft) SO 142 0 min 0,000 mm 0,0 UV-I 0 W/m 2,3 C 5,3 C 12,9 km/h (3 Bft) 97,44 %
08.02.2016 06:55 5,3 C 81 % 1011,8 hPa 0,0 l/m 3,6 km/h (1 Bft) O-SO 111 0 min 0,000 mm 0,0 UV-I 0 W/m 2,3 C 5,3 C 11,3 km/h (2 Bft) 97,46 %
08.02.2016 07:00 5,2 C 81 % 1011,8 hPa 0,0 l/m 3,2 km/h (1 Bft) SO 138 0 min 0,026 mm 0,0 UV-I 0 W/m 2,2 C 5,2 C 9,7 km/h (2 Bft) 96,33 %
08.02.2016 07:05 5,2 C 82 % 1011,7 hPa 0,0 l/m 3,8 km/h (1 Bft) O 88 0 min 0,000 mm 0,0 UV-I 0 W/m 2,4 C 5,2 C 6,4 km/h (2 Bft) 94,31 %
08.02.2016 07:10 5,2 C 81 % 1011,7 hPa 0,0 l/m 4,3 km/h (1 Bft) O 82 0 min 0,000 mm 0,0 UV-I 0 W/m 2,2 C 5,2 C 6,4 km/h (2 Bft) 95,76 %
08.02.2016 07:15 5,3 C 81 % 1011,7 hPa 0,0 l/m 3,8 km/h (1 Bft) O 88 0 min 0,000 mm 0,0 UV-I 0 W/m 2,3 C 5,3 C 6,4 km/h (2 Bft) 95,73 %
08.02.2016 07:20 5,2 C 81 % 1011,7 hPa 0,0 l/m 4,1 km/h (1 Bft) S-SO 148 0 min 0,000 mm 0,0 UV-I 0 W/m 2,2 C 5,2 C 9,7 km/h (2 Bft) 98,31 %
08.02.2016 07:25 5,2 C 81 % 1011,7 hPa 0,0 l/m 2,5 km/h (1 Bft) S-SO 154 0 min 0,000 mm 0,0 UV-I 0 W/m 2,2 C 5,2 C 6,4 km/h (2 Bft) 96,33 %
08.02.2016 07:30 5,3 C 80 % 1011,7 hPa 0,0 l/m 3,8 km/h (1 Bft) S-SO 159 0 min 0,000 mm 0,0 UV-I 0 W/m 2,1 C 5,3 C 9,7 km/h (2 Bft) 98,33 %
08.02.2016 07:35 5,4 C 80 % 1011,6 hPa 0,0 l/m 2,1 km/h (1 Bft) S-SO 167 0 min 0,000 mm 0,0 UV-I 0 W/m 2,2 C 5,4 C 6,4 km/h (2 Bft) 97,44 %
08.02.2016 07:40 5,4 C 79 % 1011,6 hPa 0,0 l/m 0,7 km/h (0 Bft) S-SO 167 0 min 0,000 mm 0,0 UV-I 0 W/m 2,1 C 5,4 C 4,8 km/h (1 Bft) 99,18 %
08.02.2016 07:45 5,1 C 82 % 1011,6 hPa 0,0 l/m 4,2 km/h (1 Bft) N-NO 28 0 min 0,000 mm 0,0 UV-I 4 W/m 2,3 C 5,1 C 6,4 km/h (2 Bft) 98,31 %
08.02.2016 07:50 4,8 C 84 % 1011,5 hPa 0,0 l/m 5,2 km/h (1 Bft) N-NO 31 0 min 0,000 mm 0,0 UV-I 6 W/m 2,3 C 4,8 C 8,0 km/h (2 Bft) 100,00 %
08.02.2016 07:55 4,6 C 85 % 1011,4 hPa 0,0 l/m 4,6 km/h (1 Bft) NO 47 0 min 0,000 mm 0,0 UV-I 7 W/m 2,3 C 4,6 C 6,4 km/h (2 Bft) 98,39 %
08.02.2016 08:00 4,7 C 85 % 1011,3 hPa 0,0 l/m 4,2 km/h (1 Bft) O-NO 70 0 min 0,000 mm 0,0 UV-I 10 W/m 2,4 C 4,7 C 8,0 km/h (2 Bft) 99,15 %
08.02.2016 08:05 4,8 C 84 % 1011,3 hPa 0,0 l/m 4,8 km/h (1 Bft) O-NO 75 0 min 0,000 mm 0,0 UV-I 12 W/m 2,3 C 4,8 C 8,0 km/h (2 Bft) 98,26 %
08.02.2016 08:10 5,0 C 83 % 1011,3 hPa 0,0 l/m 5,5 km/h (1 Bft) O-NO 66 0 min 0,000 mm 0,0 UV-I 16 W/m 2,4 C 5,0 C 8,0 km/h (2 Bft) 98,29 %
08.02.2016 08:15 4,9 C 84 % 1011,3 hPa 0,0 l/m 4,8 km/h (1 Bft) O-NO 59 0 min 0,000 mm 0,0 UV-I 22 W/m 2,4 C 4,9 C 6,4 km/h (2 Bft) 99,11 %
08.02.2016 08:20 4,6 C 86 % 1011,3 hPa 0,0 l/m 5,5 km/h (1 Bft) NO 38 0 min 0,000 mm 0,0 UV-I 29 W/m 2,5 C 4,6 C 8,0 km/h (2 Bft) 100,00 %
08.02.2016 08:25 4,6 C 85 % 1011,3 hPa 0,0 l/m 6,1 km/h (2 Bft) N-NO 32 0 min 0,000 mm 0,0 UV-I 39 W/m 2,3 C 4,6 C 9,7 km/h (2 Bft) 96,58 %
08.02.2016 08:30 4,7 C 85 % 1011,2 hPa 0,0 l/m 6,2 km/h (2 Bft) O-NO 65 0 min 0,000 mm 0,0 UV-I 46 W/m 2,4 C 4,7 C 9,7 km/h (2 Bft) 97,46 %
08.02.2016 08:35 4,8 C 84 % 1011,2 hPa 0,0 l/m 7,7 km/h (2 Bft) NO 43 0 min 0,000 mm 0,0 UV-I 52 W/m 2,3 C 3,6 C 14,5 km/h (3 Bft) 98,29 %
08.02.2016 08:40 4,9 C 84 % 1011,3 hPa 0,0 l/m 8,5 km/h (2 Bft) O-NO 67 0 min 0,000 mm 0,0 UV-I 50 W/m 2,4 C 3,1 C 12,9 km/h (3 Bft) 98,31 %
08.02.2016 08:45 4,9 C 85 % 1011,4 hPa 0,0 l/m 6,9 km/h (2 Bft) O-NO 59 0 min 0,000 mm 0,0 UV-I 58 W/m 2,6 C 4,5 C 12,9 km/h (3 Bft) 99,17 %
08.02.2016 08:50 4,9 C 85 % 1011,4 hPa 0,0 l/m 5,5 km/h (1 Bft) NO 55 0 min 0,000 mm 0,0 UV-I 77 W/m 2,6 C 4,9 C 8,0 km/h (2 Bft) 99,15 %
08.02.2016 08:55 4,8 C 85 % 1011,4 hPa 0,0 l/m 4,4 km/h (1 Bft) NO 38 0 min 0,000 mm 0,0 UV-I 79 W/m 2,5 C 4,8 C 6,4 km/h (2 Bft) 99,15 %
08.02.2016 09:00 4,9 C 85 % 1011,4 hPa 0,0 l/m 5,3 km/h (1 Bft) NO 50 5 min 0,025 mm 0,0 UV-I 133 W/m 2,6 C 4,9 C 8,0 km/h (2 Bft) 95,41 %
08.02.2016 09:05 5,3 C 84 % 1011,3 hPa 0,0 l/m 7,0 km/h (2 Bft) O-NO 62 5 min 0,000 mm 0,0 UV-I 196 W/m 2,8 C 4,8 C 11,3 km/h (2 Bft) 96,58 %
08.02.2016 09:10 5,6 C 83 % 1011,3 hPa 0,0 l/m 7,6 km/h (2 Bft) NO 51 5 min 0,000 mm 0,0 UV-I 212 W/m 2,9 C 4,6 C 11,3 km/h (2 Bft) 97,44 %
08.02.2016 09:15 5,7 C 82 % 1011,2 hPa 0,0 l/m 9,9 km/h (2 Bft) O-NO 68 5 min 0,000 mm 0,0 UV-I 231 W/m 2,9 C 2,9 C 16,1 km/h (3 Bft) 96,67 %
08.02.2016 09:20 5,7 C 82 % 1011,1 hPa 0,0 l/m 9,5 km/h (2 Bft) NO 53 5 min 0,000 mm 0,0 UV-I 150 W/m 2,9 C 3,2 C 14,5 km/h (3 Bft) 97,46 %
08.02.2016 09:25 5,7 C 83 % 1011,1 hPa 0,0 l/m 9,2 km/h (2 Bft) O-NO 64 0 min 0,000 mm 0,1 UV-I 148 W/m 3,0 C 3,4 C 14,5 km/h (3 Bft) 99,15 %
08.02.2016 09:30 5,9 C 82 % 1011,1 hPa 0,0 l/m 8,0 km/h (2 Bft) NO 46 5 min 0,000 mm 0,5 UV-I 212 W/m 3,1 C 4,5 C 14,5 km/h (3 Bft) 98,29 %
08.02.2016 09:35 6,2 C 81 % 1011,0 hPa 0,0 l/m 8,8 km/h (2 Bft) O-NO 61 5 min 0,000 mm 0,5 UV-I 303 W/m 3,2 C 4,2 C 14,5 km/h (3 Bft) 97,46 %
08.02.2016 09:40 6,3 C 81 % 1010,9 hPa 0,0 l/m 9,5 km/h (2 Bft) NO 56 5 min 0,000 mm 0,6 UV-I 337 W/m 3,3 C 3,9 C 14,5 km/h (3 Bft) 100,00 %
08.02.2016 09:45 6,6 C 80 % 1010,8 hPa 0,0 l/m 11,3 km/h (2 Bft) O-NO 66 5 min 0,000 mm 0,6 UV-I 364 W/m 3,4 C 3,0 C 16,1 km/h (3 Bft) 97,46 %
08.02.2016 09:50 6,8 C 79 % 1010,8 hPa 0,0 l/m 11,6 km/h (2 Bft) O-NO 61 5 min 0,000 mm 0,7 UV-I 351 W/m 3,4 C 3,1 C 19,3 km/h (3 Bft) 100,00 %
08.02.2016 09:55 6,9 C 78 % 1010,8 hPa 0,0 l/m 12,9 km/h (3 Bft) O-NO 64 5 min 0,000 mm 0,6 UV-I 294 W/m 3,3 C 2,4 C 17,7 km/h (3 Bft) 96,58 %
08.02.2016 10:00 7,2 C 77 % 1010,7 hPa 0,0 l/m 13,0 km/h (3 Bft) O 85 5 min 0,127 mm 0,7 UV-I 378 W/m 3,4 C 2,7 C 17,7 km/h (3 Bft) 99,08 %
08.02.2016 10:05 7,2 C 77 % 1010,6 hPa 0,0 l/m 13,9 km/h (3 Bft) O-NO 69 5 min 0,000 mm 0,7 UV-I 297 W/m 3,4 C 2,3 C 22,5 km/h (4 Bft) 98,31 %
08.02.2016 10:10 7,4 C 77 % 1010,6 hPa 0,0 l/m 9,8 km/h (2 Bft) O-NO 76 5 min 0,000 mm 0,8 UV-I 393 W/m 3,6 C 4,9 C 16,1 km/h (3 Bft) 97,26 %
08.02.2016 10:20 7,7 C 75 % 1010,3 hPa 0,0 l/m 11,5 km/h (2 Bft) O-SO 110 10 min 0,000 mm 0,9 UV-I 364 W/m 3,6 C 4,1 C 14,5 km/h (3 Bft) 99,65 %
08.02.2016 10:25 7,8 C 76 % 1010,2 hPa 0,0 l/m 9,5 km/h (2 Bft) O 94 5 min 0,000 mm 0,9 UV-I 264 W/m 3,8 C 5,5 C 16,1 km/h (3 Bft) 99,08 %
08.02.2016 10:30 7,9 C 74 % 1010,2 hPa 0,0 l/m 12,5 km/h (3 Bft) O-SO 108 5 min 0,000 mm 1,0 UV-I 352 W/m 3,6 C 3,8 C 22,5 km/h (4 Bft) 96,77 %
08.02.2016 10:35 7,9 C 73 % 1010,1 hPa 0,0 l/m 12,5 km/h (3 Bft) O-SO 115 5 min 0,000 mm 1,0 UV-I 359 W/m 3,4 C 3,8 C 22,5 km/h (4 Bft) 97,44 %
08.02.2016 10:40 8,0 C 75 % 1010,0 hPa 0,0 l/m 12,5 km/h (3 Bft) SO 142 5 min 0,000 mm 1,1 UV-I 367 W/m 3,8 C 3,9 C 19,3 km/h (3 Bft) 97,39 %
08.02.2016 10:45 8,2 C 75 % 1010,0 hPa 0,0 l/m 8,2 km/h (2 Bft) S-SO 153 5 min 0,000 mm 1,1 UV-I 376 W/m 4,0 C 6,8 C 16,1 km/h (3 Bft) 96,52 %
08.02.2016 10:50 8,5 C 73 % 1009,9 hPa 0,0 l/m 9,0 km/h (2 Bft) SO 130 5 min 0,000 mm 1,1 UV-I 386 W/m 3,9 C 6,6 C 17,7 km/h (3 Bft) 97,56 %
08.02.2016 10:55 8,5 C 70 % 1009,9 hPa 0,0 l/m 13,1 km/h (3 Bft) O 86 5 min 0,000 mm 1,2 UV-I 395 W/m 3,3 C 4,2 C 20,9 km/h (4 Bft) 98,21 %
08.02.2016 11:00 8,8 C 71 % 1009,9 hPa 0,0 l/m 9,9 km/h (2 Bft) O 82 5 min 0,178 mm 1,2 UV-I 396 W/m 3,8 C 6,3 C 17,7 km/h (3 Bft) 99,11 %
08.02.2016 11:05 8,9 C 72 % 1009,9 hPa 0,0 l/m 9,0 km/h (2 Bft) O-NO 76 5 min 0,000 mm 1,2 UV-I 403 W/m 4,1 C 7,0 C 16,1 km/h (3 Bft) 99,17 %
08.02.2016 11:10 8,9 C 71 % 1009,7 hPa 0,0 l/m 8,7 km/h (2 Bft) NO 55 5 min 0,000 mm 1,3 UV-I 412 W/m 3,9 C 7,2 C 16,1 km/h (3 Bft) 99,17 %
08.02.2016 11:15 9,2 C 70 % 1009,6 hPa 0,0 l/m 8,4 km/h (2 Bft) O-SO 102 5 min 0,000 mm 1,3 UV-I 423 W/m 4,0 C 7,7 C 16,1 km/h (3 Bft) 98,20 %
08.02.2016 11:20 9,1 C 71 % 1009,4 hPa 0,0 l/m 9,9 km/h (2 Bft) SO 140 5 min 0,000 mm 1,3 UV-I 446 W/m 4,1 C 6,7 C 16,1 km/h (3 Bft) 97,58 %
08.02.2016 11:25 9,3 C 71 % 1009,4 hPa 0,0 l/m 9,2 km/h (2 Bft) O-NO 74 5 min 0,000 mm 1,4 UV-I 435 W/m 4,3 C 7,3 C 16,1 km/h (3 Bft) 99,13 %
08.02.2016 11:30 9,2 C 70 % 1009,3 hPa 0,0 l/m 9,1 km/h (2 Bft) O 96 5 min 0,000 mm 1,3 UV-I 340 W/m 4,0 C 7,3 C 16,1 km/h (3 Bft) 98,33 %
08.02.2016 11:35 9,4 C 70 % 1009,2 hPa 0,0 l/m 6,2 km/h (2 Bft) O-NO 65 5 min 0,000 mm 1,3 UV-I 397 W/m 4,2 C 9,4 C 12,9 km/h (3 Bft) 99,18 %
08.02.2016 11:40 9,6 C 70 % 1009,2 hPa 0,0 l/m 7,1 km/h (2 Bft) O-NO 70 5 min 0,000 mm 1,3 UV-I 431 W/m 4,4 C 9,1 C 12,9 km/h (3 Bft) 100,00 %
08.02.2016 11:45 9,9 C 69 % 1009,1 hPa 0,0 l/m 6,9 km/h (2 Bft) O-NO 69 5 min 0,000 mm 1,4 UV-I 479 W/m 4,5 C 9,5 C 14,5 km/h (3 Bft) 99,19 %
08.02.2016 11:50 10,2 C 65 % 1009,0 hPa 0,0 l/m 7,9 km/h (2 Bft) O-NO 72 5 min 0,000 mm 1,5 UV-I 483 W/m 3,9 C 9,1 C 12,9 km/h (3 Bft) 100,00 %
08.02.2016 11:55 10,3 C 64 % 1009,0 hPa 0,0 l/m 9,1 km/h (2 Bft) O-NO 69 5 min 0,000 mm 1,4 UV-I 444 W/m 3,8 C 8,5 C 17,7 km/h (3 Bft) 96,12 %
08.02.2016 12:00 10,2 C 65 % 1008,9 hPa 0,0 l/m 7,5 km/h (2 Bft) O 88 5 min 0,229 mm 1,3 UV-I 336 W/m 3,9 C 9,4 C 12,9 km/h (3 Bft) 95,87 %
08.02.2016 12:05 10,1 C 66 % 1008,8 hPa 0,0 l/m 5,7 km/h (1 Bft) O 79 5 min 0,000 mm 1,4 UV-I 382 W/m 4,0 C 10,1 C 9,7 km/h (2 Bft) 97,46 %
08.02.2016 12:10 10,3 C 66 % 1008,5 hPa 0,0 l/m 9,1 km/h (2 Bft) O-NO 61 5 min 0,000 mm 1,4 UV-I 386 W/m 4,2 C 8,5 C 14,5 km/h (3 Bft) 94,44 %
08.02.2016 12:15 10,2 C 65 % 1008,4 hPa 0,0 l/m 11,8 km/h (2 Bft) O-NO 63 5 min 0,000 mm 1,3 UV-I 298 W/m 3,9 C 6,8 C 17,7 km/h (3 Bft) 97,58 %
08.02.2016 12:20 10,2 C 66 % 1008,1 hPa 0,0 l/m 8,9 km/h (2 Bft) O-NO 59 5 min 0,000 mm 1,3 UV-I 356 W/m 4,1 C 8,5 C 16,1 km/h (3 Bft) 97,32 %
08.02.2016 12:25 10,3 C 67 % 1008,0 hPa 0,0 l/m 10,9 km/h (2 Bft) O-NO 75 5 min 0,000 mm 1,3 UV-I 362 W/m 4,4 C 7,4 C 16,1 km/h (3 Bft) 97,56 %
08.02.2016 12:30 10,3 C 66 % 1007,8 hPa 0,0 l/m 12,7 km/h (3 Bft) O-SO 112 5 min 0,000 mm 1,3 UV-I 354 W/m 4,2 C 6,5 C 19,3 km/h (3 Bft) 99,19 %
08.02.2016 12:35 10,5 C 66 % 1007,6 hPa 0,0 l/m 11,6 km/h (2 Bft) O 85 5 min 0,000 mm 1,4 UV-I 406 W/m 4,4 C 7,3 C 16,1 km/h (3 Bft) 99,10 %
08.02.2016 12:40 10,7 C 63 % 1007,3 hPa 0,0 l/m 12,3 km/h (3 Bft) SO 126 5 min 0,000 mm 1,4 UV-I 407 W/m 3,9 C 7,2 C 20,9 km/h (4 Bft) 100,00 %
08.02.2016 12:45 10,8 C 65 % 1007,0 hPa 0,0 l/m 13,9 km/h (3 Bft) O 86 5 min 0,000 mm 1,3 UV-I 395 W/m 4,5 C 6,6 C 22,5 km/h (4 Bft) 99,08 %
08.02.2016 12:50 10,7 C 66 % 1006,8 hPa 0,0 l/m 18,2 km/h (3 Bft) SO 125 5 min 0,000 mm 1,2 UV-I 314 W/m 4,6 C 4,8 C 27,4 km/h (4 Bft) 99,21 %
08.02.2016 12:55 10,5 C 67 % 1006,7 hPa 0,0 l/m 19,2 km/h (3 Bft) O-SO 105 5 min 0,000 mm 1,1 UV-I 257 W/m 4,6 C 4,2 C 29,0 km/h (5 Bft) 98,31 %
08.02.2016 13:00 10,6 C 67 % 1006,5 hPa 0,0 l/m 15,5 km/h (3 Bft) O-SO 113 5 min 0,203 mm 1,2 UV-I 299 W/m 4,7 C 5,7 C 25,7 km/h (4 Bft) 100,00 %
08.02.2016 13:05 10,8 C 67 % 1006,5 hPa 0,0 l/m 11,5 km/h (2 Bft) O 96 5 min 0,000 mm 1,2 UV-I 351 W/m 4,9 C 7,7 C 22,5 km/h (4 Bft) 100,00 %
08.02.2016 13:10 10,9 C 66 % 1006,5 hPa 0,0 l/m 10,6 km/h (2 Bft) O-NO 71 5 min 0,000 mm 1,1 UV-I 290 W/m 4,8 C 8,3 C 20,9 km/h (4 Bft) 99,21 %
08.02.2016 13:15 11,1 C 66 % 1006,5 hPa 0,0 l/m 8,4 km/h (2 Bft) O-SO 105 5 min 0,000 mm 1,2 UV-I 417 W/m 5,0 C 9,8 C 17,7 km/h (3 Bft) 100,00 %
08.02.2016 13:20 11,4 C 66 % 1006,3 hPa 0,0 l/m 12,2 km/h (2 Bft) SO 124 5 min 0,000 mm 1,3 UV-I 464 W/m 5,3 C 8,0 C 20,9 km/h (4 Bft) 100,00 %
08.02.2016 13:25 11,3 C 65 % 1006,2 hPa 0,0 l/m 10,9 km/h (2 Bft) O-SO 116 5 min 0,000 mm 1,1 UV-I 265 W/m 5,0 C 8,6 C 22,5 km/h (4 Bft) 99,21 %
08.02.2016 13:30 11,4 C 65 % 1006,1 hPa 0,0 l/m 9,1 km/h (2 Bft) O 101 5 min 0,000 mm 1,1 UV-I 340 W/m 5,1 C 9,6 C 20,9 km/h (4 Bft) 97,22 %
08.02.2016 13:35 11,6 C 63 % 1006,0 hPa 0,0 l/m 11,0 km/h (2 Bft) O-SO 113 5 min 0,000 mm 1,2 UV-I 379 W/m 4,8 C 8,8 C 19,3 km/h (3 Bft) 95,97 %
08.02.2016 13:40 11,8 C 63 % 1005,9 hPa 0,0 l/m 6,8 km/h (2 Bft) O-NO 66 5 min 0,000 mm 1,0 UV-I 315 W/m 5,0 C 11,5 C 14,5 km/h (3 Bft) 97,09 %
08.02.2016 13:45 11,8 C 60 % 1005,8 hPa 0,0 l/m 12,7 km/h (3 Bft) O 98 5 min 0,000 mm 1,0 UV-I 323 W/m 4,3 C 8,3 C 19,3 km/h (3 Bft) 96,83 %
08.02.2016 13:50 11,6 C 60 % 1005,7 hPa 0,0 l/m 12,0 km/h (2 Bft) O-SO 103 5 min 0,000 mm 1,0 UV-I 301 W/m 4,1 C 8,4 C 17,7 km/h (3 Bft) 96,77 %
08.02.2016 13:55 11,8 C 59 % 1005,5 hPa 0,0 l/m 9,7 km/h (2 Bft) O-SO 103 5 min 0,000 mm 1,0 UV-I 302 W/m 4,1 C 9,7 C 16,1 km/h (3 Bft) 97,37 %
08.02.2016 14:00 12,0 C 60 % 1005,5 hPa 0,0 l/m 8,1 km/h (2 Bft) O-NO 76 5 min 0,203 mm 1,0 UV-I 387 W/m 4,5 C 10,9 C 14,5 km/h (3 Bft) 97,35 %
08.02.2016 14:05 12,2 C 57 % 1005,4 hPa 0,0 l/m 8,3 km/h (2 Bft) O 81 5 min 0,000 mm 1,0 UV-I 407 W/m 3,9 C 11,0 C 17,7 km/h (3 Bft) 97,46 %
08.02.2016 14:10 12,1 C 58 % 1005,4 hPa 0,0 l/m 10,0 km/h (2 Bft) O-NO 67 5 min 0,000 mm 0,9 UV-I 314 W/m 4,1 C 9,9 C 17,7 km/h (3 Bft) 99,15 %
08.02.2016 14:15 12,0 C 59 % 1005,3 hPa 0,0 l/m 7,8 km/h (2 Bft) O 96 5 min 0,000 mm 0,8 UV-I 224 W/m 4,2 C 11,1 C 14,5 km/h (3 Bft) 100,00 %
08.02.2016 14:20 11,9 C 60 % 1005,3 hPa 0,0 l/m 6,6 km/h (2 Bft) O-NO 69 5 min 0,000 mm 0,8 UV-I 252 W/m 4,4 C 11,8 C 12,9 km/h (3 Bft) 99,13 %
08.02.2016 14:25 11,9 C 62 % 1005,1 hPa 0,0 l/m 4,3 km/h (1 Bft) O-SO 115 5 min 0,000 mm 0,7 UV-I 250 W/m 4,9 C 11,9 C 8,0 km/h (2 Bft) 97,56 %
08.02.2016 14:30 12,1 C 60 % 1005,1 hPa 0,0 l/m 4,3 km/h (1 Bft) O-SO 120 5 min 0,000 mm 0,7 UV-I 276 W/m 4,6 C 12,1 C 9,7 km/h (2 Bft) 100,00 %
08.02.2016 14:35 12,2 C 59 % 1005,2 hPa 0,0 l/m 4,9 km/h (1 Bft) O-NO 73 5 min 0,000 mm 0,7 UV-I 293 W/m 4,4 C 12,2 C 8,0 km/h (2 Bft) 99,15 %
08.02.2016 14:40 12,2 C 60 % 1005,2 hPa 0,0 l/m 4,3 km/h (1 Bft) NO 45 5 min 0,000 mm 0,7 UV-I 206 W/m 4,7 C 12,2 C 6,4 km/h (2 Bft) 98,37 %
08.02.2016 14:45 12,1 C 59 % 1005,1 hPa 0,0 l/m 5,1 km/h (1 Bft) O-NO 67 0 min 0,000 mm 0,6 UV-I 143 W/m 4,3 C 12,1 C 11,3 km/h (2 Bft) 97,25 %
08.02.2016 14:50 12,1 C 60 % 1005,1 hPa 0,0 l/m 4,3 km/h (1 Bft) O-NO 65 0 min 0,000 mm 0,5 UV-I 143 W/m 4,6 C 12,1 C 6,4 km/h (2 Bft) 99,17 %
08.02.2016 14:55 12,1 C 60 % 1005,1 hPa 0,0 l/m 4,5 km/h (1 Bft) NO 55 0 min 0,000 mm 0,5 UV-I 160 W/m 4,6 C 12,1 C 6,4 km/h (2 Bft) 98,35 %
08.02.2016 15:00 11,9 C 61 % 1005,0 hPa 0,0 l/m 6,3 km/h (2 Bft) NO 42 0 min 0,152 mm 0,4 UV-I 107 W/m 4,6 C 11,9 C 9,7 km/h (2 Bft) 97,50 %
08.02.2016 15:05 11,7 C 65 % 1004,9 hPa 0,0 l/m 4,0 km/h (1 Bft) NO 46 0 min 0,000 mm 0,0 UV-I 90 W/m 5,3 C 11,7 C 6,4 km/h (2 Bft) 99,08 %
08.02.2016 15:10 11,4 C 66 % 1005,0 hPa 0,0 l/m 1,5 km/h (1 Bft) NO 46 0 min 0,000 mm 0,0 UV-I 78 W/m 5,3 C 11,4 C 4,8 km/h (1 Bft) 97,32 %
08.02.2016 15:15 11,3 C 65 % 1005,0 hPa 0,0 l/m 3,0 km/h (1 Bft) NO 49 0 min 0,000 mm 0,0 UV-I 98 W/m 5,0 C 11,3 C 4,8 km/h (1 Bft) 98,35 %
08.02.2016 15:20 11,5 C 67 % 1005,0 hPa 0,0 l/m 2,4 km/h (1 Bft) NO 49 5 min 0,000 mm 0,0 UV-I 178 W/m 5,6 C 11,5 C 4,8 km/h (1 Bft) 96,40 %
08.02.2016 15:25 11,3 C 70 % 1005,0 hPa 0,0 l/m 3,6 km/h (1 Bft) N-NO 24 5 min 0,000 mm 0,0 UV-I 140 W/m 6,0 C 11,3 C 8,0 km/h (2 Bft) 95,38 %
08.02.2016 15:30 11,3 C 68 % 1004,8 hPa 0,0 l/m 6,2 km/h (2 Bft) N-NO 19 5 min 0,000 mm 0,0 UV-I 142 W/m 5,6 C 11,3 C 9,7 km/h (2 Bft) 95,73 %
08.02.2016 15:35 11,3 C 68 % 1004,9 hPa 0,0 l/m 5,0 km/h (1 Bft) NO 36 0 min 0,000 mm 0,0 UV-I 122 W/m 5,6 C 11,3 C 9,7 km/h (2 Bft) 97,39 %
08.02.2016 15:40 11,3 C 68 % 1004,8 hPa 0,0 l/m 5,6 km/h (1 Bft) NO 46 0 min 0,000 mm 0,0 UV-I 93 W/m 5,6 C 11,3 C 8,0 km/h (2 Bft) 97,52 %
08.02.2016 15:45 11,2 C 68 % 1004,7 hPa 0,0 l/m 6,5 km/h (2 Bft) O 92 0 min 0,000 mm 0,0 UV-I 94 W/m 5,5 C 11,2 C 12,9 km/h (3 Bft) 97,30 %
08.02.2016 15:50 10,9 C 71 % 1004,6 hPa 0,0 l/m 6,1 km/h (2 Bft) O 83 5 min 0,000 mm 0,0 UV-I 113 W/m 5,9 C 10,9 C 12,9 km/h (3 Bft) 97,46 %
08.02.2016 15:55 11,2 C 67 % 1004,9 hPa 0,0 l/m 5,3 km/h (1 Bft) O 82 5 min 0,000 mm 0,0 UV-I 124 W/m 5,3 C 11,2 C 9,7 km/h (2 Bft) 98,33 %
08.02.2016 16:00 11,3 C 66 % 1004,8 hPa 0,0 l/m 5,2 km/h (1 Bft) O-NO 71 5 min 0,077 mm 0,0 UV-I 143 W/m 5,2 C 11,3 C 9,7 km/h (2 Bft) 100,00 %
08.02.2016 16:05 11,3 C 66 % 1004,6 hPa 0,0 l/m 5,7 km/h (1 Bft) O-NO 66 5 min 0,000 mm 0,0 UV-I 90 W/m 5,2 C 11,3 C 12,9 km/h (3 Bft) 99,15 %
08.02.2016 16:10 11,2 C 66 % 1004,5 hPa 0,0 l/m 6,8 km/h (2 Bft) O 81 0 min 0,000 mm 0,0 UV-I 77 W/m 5,1 C 10,9 C 12,9 km/h (3 Bft) 100,00 %
08.02.2016 16:15 10,8 C 68 % 1004,4 hPa 0,0 l/m 7,8 km/h (2 Bft) O 86 0 min 0,000 mm 0,0 UV-I 48 W/m 5,1 C 9,8 C 12,9 km/h (3 Bft) 100,00 %
08.02.2016 16:20 10,5 C 69 % 1004,2 hPa 0,0 l/m 7,9 km/h (2 Bft) O-NO 67 0 min 0,000 mm 0,0 UV-I 45 W/m 5,1 C 9,4 C 12,9 km/h (3 Bft) 100,00 %
08.02.2016 16:25 10,3 C 70 % 1004,0 hPa 0,0 l/m 10,7 km/h (2 Bft) O-SO 102 0 min 0,000 mm 0,0 UV-I 41 W/m 5,1 C 7,5 C 17,7 km/h (3 Bft) 99,19 %
08.02.2016 16:30 10,2 C 70 % 1003,9 hPa 0,0 l/m 10,4 km/h (2 Bft) O 86 0 min 0,000 mm 0,0 UV-I 35 W/m 5,0 C 7,6 C 14,5 km/h (3 Bft) 100,00 %
08.02.2016 16:35 10,3 C 70 % 1003,9 hPa 0,0 l/m 9,3 km/h (2 Bft) O 82 0 min 0,000 mm 0,0 UV-I 29 W/m 5,1 C 8,3 C 16,1 km/h (3 Bft) 99,25 %
08.02.2016 16:40 10,2 C 70 % 1003,9 hPa 0,0 l/m 10,0 km/h (2 Bft) O-NO 57 0 min 0,000 mm 0,0 UV-I 27 W/m 5,0 C 7,8 C 16,1 km/h (3 Bft) 99,12 %
08.02.2016 16:45 10,1 C 72 % 1003,8 hPa 0,0 l/m 6,7 km/h (2 Bft) O-NO 66 0 min 0,000 mm 0,0 UV-I 25 W/m 5,3 C 9,9 C 14,5 km/h (3 Bft) 99,19 %
08.02.2016 16:50 9,5 C 74 % 1003,7 hPa 0,0 l/m 6,0 km/h (2 Bft) O 82 0 min 0,000 mm 0,0 UV-I 23 W/m 5,1 C 9,5 C 8,0 km/h (2 Bft) 99,15 %
08.02.2016 16:55 9,3 C 74 % 1003,6 hPa 0,0 l/m 7,0 km/h (2 Bft) O 98 0 min 0,000 mm 0,0 UV-I 17 W/m 4,9 C 8,9 C 12,9 km/h (3 Bft) 100,00 %
08.02.2016 17:00 9,3 C 74 % 1003,3 hPa 0,0 l/m 11,8 km/h (2 Bft) O 97 0 min 0,050 mm 0,0 UV-I 11 W/m 4,9 C 5,8 C 19,3 km/h (3 Bft) 100,00 %
08.02.2016 17:05 9,3 C 74 % 1003,0 hPa 0,0 l/m 10,3 km/h (2 Bft) O 81 0 min 0,000 mm 0,0 UV-I 7 W/m 4,9 C 6,6 C 19,3 km/h (3 Bft) 98,29 %
08.02.2016 17:10 9,3 C 74 % 1003,1 hPa 0,0 l/m 12,3 km/h (3 Bft) O 80 0 min 0,000 mm 0,0 UV-I 5 W/m 4,9 C 5,6 C 20,9 km/h (4 Bft) 100,00 %
08.02.2016 17:15 9,3 C 74 % 1003,2 hPa 0,0 l/m 10,0 km/h (2 Bft) O-NO 57 0 min 0,000 mm 0,0 UV-I 2 W/m 4,9 C 6,8 C 14,5 km/h (3 Bft) 96,58 %
08.02.2016 17:20 9,2 C 75 % 1003,3 hPa 0,0 l/m 7,3 km/h (2 Bft) NO 50 0 min 0,000 mm 0,0 UV-I 0 W/m 5,0 C 8,5 C 12,9 km/h (3 Bft) 95,54 %
08.02.2016 17:25 8,7 C 77 % 1003,1 hPa 0,0 l/m 7,8 km/h (2 Bft) NO 38 0 min 0,000 mm 0,0 UV-I 0 W/m 4,9 C 7,6 C 12,9 km/h (3 Bft) 96,61 %
08.02.2016 17:30 8,6 C 77 % 1003,1 hPa 0,0 l/m 7,7 km/h (2 Bft) NO 34 0 min 0,000 mm 0,0 UV-I 0 W/m 4,8 C 7,6 C 11,3 km/h (2 Bft) 97,39 %
08.02.2016 17:35 8,4 C 78 % 1003,2 hPa 0,0 l/m 6,6 km/h (2 Bft) NO 51 0 min 0,000 mm 0,0 UV-I 0 W/m 4,8 C 8,3 C 11,3 km/h (2 Bft) 97,50 %
08.02.2016 17:40 8,2 C 78 % 1003,3 hPa 0,0 l/m 3,3 km/h (1 Bft) NO 44 0 min 0,000 mm 0,0 UV-I 0 W/m 4,6 C 8,2 C 8,0 km/h (2 Bft) 97,39 %
08.02.2016 17:45 7,8 C 80 % 1003,4 hPa 0,0 l/m 2,3 km/h (1 Bft) N-NW 347 0 min 0,000 mm 0,0 UV-I 0 W/m 4,6 C 7,8 C 8,0 km/h (2 Bft) 97,56 %
08.02.2016 17:50 7,8 C 80 % 1003,5 hPa 0,0 l/m 2,3 km/h (1 Bft) N 5 0 min 0,000 mm 0,0 UV-I 0 W/m 4,6 C 7,8 C 6,4 km/h (2 Bft) 99,13 %
08.02.2016 17:55 7,9 C 80 % 1003,6 hPa 0,0 l/m 2,9 km/h (1 Bft) N-NO 24 0 min 0,000 mm 0,0 UV-I 0 W/m 4,7 C 7,9 C 8,0 km/h (2 Bft) 99,08 %
08.02.2016 18:00 7,9 C 80 % 1003,6 hPa 0,0 l/m 4,1 km/h (1 Bft) N-NO 19 0 min 0,026 mm 0,0 UV-I 0 W/m 4,7 C 7,9 C 8,0 km/h (2 Bft) 99,21 %
08.02.2016 18:05 7,9 C 80 % 1003,6 hPa 0,0 l/m 5,0 km/h (1 Bft) N-NO 30 0 min 0,000 mm 0,0 UV-I 0 W/m 4,7 C 7,9 C 8,0 km/h (2 Bft) 99,15 %
08.02.2016 18:10 7,7 C 80 % 1003,6 hPa 0,0 l/m 6,5 km/h (2 Bft) NO 34 0 min 0,000 mm 0,0 UV-I 0 W/m 4,5 C 7,6 C 11,3 km/h (2 Bft) 99,15 %
08.02.2016 18:15 7,6 C 80 % 1003,5 hPa 0,0 l/m 8,9 km/h (2 Bft) N-NO 27 0 min 0,000 mm 0,0 UV-I 0 W/m 4,4 C 5,7 C 12,9 km/h (3 Bft) 100,00 %
08.02.2016 18:20 7,4 C 81 % 1003,6 hPa 0,0 l/m 5,5 km/h (1 Bft) N-NO 16 0 min 0,000 mm 0,0 UV-I 0 W/m 4,4 C 7,4 C 9,7 km/h (2 Bft) 100,00 %
08.02.2016 18:25 7,3 C 82 % 1003,7 hPa 0,0 l/m 1,6 km/h (1 Bft) N 360 0 min 0,000 mm 0,0 UV-I 0 W/m 4,4 C 7,3 C 4,8 km/h (1 Bft) 99,12 %
08.02.2016 18:30 7,2 C 82 % 1003,8 hPa 0,0 l/m 1,0 km/h (0 Bft) N 360 0 min 0,000 mm 0,0 UV-I 0 W/m 4,3 C 7,2 C 4,8 km/h (1 Bft) 100,00 %
08.02.2016 18:35 7,2 C 82 % 1004,0 hPa 0,0 l/m 1,6 km/h (1 Bft) NW 322 0 min 0,000 mm 0,0 UV-I 0 W/m 4,3 C 7,2 C 4,8 km/h (1 Bft) 99,11 %
08.02.2016 18:40 7,2 C 82 % 1004,0 hPa 0,0 l/m 2,7 km/h (1 Bft) NW 315 0 min 0,000 mm 0,0 UV-I 0 W/m 4,3 C 7,2 C 6,4 km/h (2 Bft) 98,33 %
08.02.2016 18:45 7,3 C 81 % 1004,0 hPa 0,0 l/m 1,9 km/h (1 Bft) NW 319 0 min 0,000 mm 0,0 UV-I 0 W/m 4,3 C 7,3 C 6,4 km/h (2 Bft) 100,00 %
08.02.2016 18:50 7,2 C 81 % 1003,9 hPa 0,0 l/m 2,3 km/h (1 Bft) N 11 0 min 0,000 mm 0,0 UV-I 0 W/m 4,2 C 7,2 C 4,8 km/h (1 Bft) 100,00 %
08.02.2016 18:55 7,0 C 82 % 1003,6 hPa 0,0 l/m 2,0 km/h (1 Bft) N-NO 19 0 min 0,000 mm 0,0 UV-I 0 W/m 4,1 C 7,0 C 6,4 km/h (2 Bft) 100,00 %
08.02.2016 19:00 6,9 C 82 % 1003,9 hPa 0,0 l/m 3,3 km/h (1 Bft) N-NO 24 0 min 0,000 mm 0,0 UV-I 0 W/m 4,0 C 6,9 C 4,8 km/h (1 Bft) 99,15 %
08.02.2016 19:05 6,9 C 82 % 1003,9 hPa 0,0 l/m 2,2 km/h (1 Bft) N-NO 24 0 min 0,000 mm 0,0 UV-I 0 W/m 4,0 C 6,9 C 4,8 km/h (1 Bft) 100,00 %
08.02.2016 19:10 6,6 C 83 % 1004,1 hPa 0,0 l/m 1,3 km/h (1 Bft) N-NO 24 0 min 0,000 mm 0,0 UV-I 0 W/m 3,9 C 6,6 C 3,2 km/h (1 Bft) 100,00 %
08.02.2016 19:15 6,3 C 84 % 1004,0 hPa 0,0 l/m 1,1 km/h (1 Bft) N-NO 24 0 min 0,000 mm 0,0 UV-I 0 W/m 3,8 C 6,3 C 3,2 km/h (1 Bft) 99,13 %
08.02.2016 19:20 6,1 C 85 % 1003,8 hPa 0,0 l/m 1,7 km/h (1 Bft) NO 35 0 min 0,000 mm 0,0 UV-I 0 W/m 3,8 C 6,1 C 4,8 km/h (1 Bft) 97,37 %
08.02.2016 19:25 5,8 C 86 % 1003,8 hPa 0,0 l/m 4,2 km/h (1 Bft) O-NO 74 0 min 0,000 mm 0,0 UV-I 0 W/m 3,6 C 5,8 C 6,4 km/h (2 Bft) 95,16 %
08.02.2016 19:30 6,0 C 86 % 1003,8 hPa 0,0 l/m 1,7 km/h (1 Bft) O-NO 76 0 min 0,000 mm 0,0 UV-I 0 W/m 3,8 C 6,0 C 4,8 km/h (1 Bft) 97,32 %
08.02.2016 19:35 6,2 C 85 % 1004,3 hPa 0,0 l/m 1,7 km/h (1 Bft) O-SO 123 0 min 0,000 mm 0,0 UV-I 0 W/m 3,9 C 6,2 C 3,2 km/h (1 Bft) 96,58 %
08.02.2016 19:40 5,8 C 86 % 1004,7 hPa 0,0 l/m 3,2 km/h (1 Bft) S-SW 207 0 min 0,000 mm 0,0 UV-I 0 W/m 3,6 C 5,8 C 4,8 km/h (1 Bft) 97,00 %
08.02.2016 19:45 5,8 C 86 % 1005,0 hPa 0,0 l/m 4,6 km/h (1 Bft) W 271 0 min 0,000 mm 0,0 UV-I 0 W/m 3,6 C 5,8 C 12,9 km/h (3 Bft) 96,21 %
08.02.2016 19:50 5,9 C 87 % 1005,2 hPa 0,0 l/m 1,5 km/h (1 Bft) W-NW 286 0 min 0,000 mm 0,0 UV-I 0 W/m 3,9 C 5,9 C 9,7 km/h (2 Bft) 97,52 %
08.02.2016 19:55 6,1 C 86 % 1005,2 hPa 0,0 l/m 2,2 km/h (1 Bft) W-NW 287 0 min 0,000 mm 0,0 UV-I 0 W/m 3,9 C 6,1 C 8,0 km/h (2 Bft) 97,58 %
08.02.2016 20:00 6,0 C 87 % 1005,0 hPa 0,0 l/m 1,7 km/h (1 Bft) O 101 0 min 0,000 mm 0,0 UV-I 0 W/m 4,0 C 6,0 C 4,8 km/h (1 Bft) 100,00 %
08.02.2016 20:05 5,9 C 87 % 1005,1 hPa 0,0 l/m 2,6 km/h (1 Bft) SO 143 0 min 0,000 mm 0,0 UV-I 0 W/m 3,9 C 5,9 C 4,8 km/h (1 Bft) 99,08 %
08.02.2016 20:10 5,8 C 87 % 1005,2 hPa 0,0 l/m 4,7 km/h (1 Bft) S-SW 192 0 min 0,000 mm 0,0 UV-I 0 W/m 3,8 C 5,8 C 8,0 km/h (2 Bft) 100,00 %
08.02.2016 20:15 5,8 C 86 % 1005,1 hPa 0,0 l/m 3,0 km/h (1 Bft) S-SO 167 0 min 0,000 mm 0,0 UV-I 0 W/m 3,6 C 5,8 C 6,4 km/h (2 Bft) 98,48 %
08.02.2016 20:20 5,9 C 87 % 1005,2 hPa 0,0 l/m 3,1 km/h (1 Bft) S-SO 167 0 min 0,000 mm 0,0 UV-I 0 W/m 3,9 C 5,9 C 6,4 km/h (2 Bft) 98,21 %
08.02.2016 20:25 5,9 C 86 % 1005,4 hPa 0,0 l/m 3,7 km/h (1 Bft) S-SO 168 0 min 0,000 mm 0,0 UV-I 0 W/m 3,7 C 5,9 C 6,4 km/h (2 Bft) 99,15 %
08.02.2016 20:30 6,1 C 86 % 1005,4 hPa 0,0 l/m 2,9 km/h (1 Bft) S-SO 168 0 min 0,000 mm 0,0 UV-I 0 W/m 3,9 C 6,1 C 6,4 km/h (2 Bft) 98,31 %
08.02.2016 20:35 6,1 C 86 % 1005,4 hPa 0,0 l/m 1,6 km/h (1 Bft) S-SO 168 0 min 0,000 mm 0,0 UV-I 0 W/m 3,9 C 6,1 C 6,4 km/h (2 Bft) 99,17 %
08.02.2016 20:40 6,0 C 86 % 1006,0 hPa 0,0 l/m 3,3 km/h (1 Bft) SW 221 0 min 0,000 mm 0,0 UV-I 0 W/m 3,8 C 6,0 C 8,0 km/h (2 Bft) 99,17 %
08.02.2016 20:45 5,7 C 88 % 1006,5 hPa 0,0 l/m 7,1 km/h (2 Bft) S 180 0 min 0,000 mm 0,0 UV-I 0 W/m 3,9 C 5,1 C 11,3 km/h (2 Bft) 99,15 %
08.02.2016 20:50 5,7 C 88 % 1006,4 hPa 0,0 l/m 5,4 km/h (1 Bft) S 179 0 min 0,000 mm 0,0 UV-I 0 W/m 3,9 C 5,7 C 9,7 km/h (2 Bft) 100,00 %
08.02.2016 20:55 5,9 C 88 % 1006,0 hPa 0,0 l/m 3,8 km/h (1 Bft) O-SO 115 0 min 0,000 mm 0,0 UV-I 0 W/m 4,1 C 5,9 C 8,0 km/h (2 Bft) 100,00 %
08.02.2016 21:00 6,0 C 87 % 1005,9 hPa 0,0 l/m 3,9 km/h (1 Bft) O 101 0 min 0,000 mm 0,0 UV-I 0 W/m 4,0 C 6,0 C 6,4 km/h (2 Bft) 100,00 %
08.02.2016 21:05 5,8 C 88 % 1006,0 hPa 0,0 l/m 1,0 km/h (0 Bft) N-NW 340 0 min 0,000 mm 0,0 UV-I 0 W/m 4,0 C 5,8 C 6,4 km/h (2 Bft) 100,00 %
08.02.2016 21:10 5,8 C 88 % 1006,0 hPa 0,0 l/m 3,0 km/h (1 Bft) SO 128 0 min 0,000 mm 0,0 UV-I 0 W/m 4,0 C 5,8 C 6,4 km/h (2 Bft) 100,00 %
08.02.2016 21:15 5,8 C 88 % 1006,6 hPa 0,0 l/m 4,4 km/h (1 Bft) W 259 0 min 0,000 mm 0,0 UV-I 0 W/m 4,0 C 5,8 C 6,4 km/h (2 Bft) 99,19 %
08.02.2016 21:20 5,9 C 88 % 1006,8 hPa 0,0 l/m 6,8 km/h (2 Bft) S-SO 154 0 min 0,000 mm 0,0 UV-I 0 W/m 4,1 C 5,6 C 17,7 km/h (3 Bft) 97,56 %
08.02.2016 21:25 6,1 C 87 % 1006,4 hPa 0,0 l/m 10,2 km/h (2 Bft) S 174 0 min 0,000 mm 0,0 UV-I 0 W/m 4,1 C 3,2 C 17,7 km/h (3 Bft) 100,00 %
08.02.2016 21:30 6,3 C 86 % 1006,8 hPa 0,0 l/m 7,0 km/h (2 Bft) SW 223 0 min 0,000 mm 0,0 UV-I 0 W/m 4,1 C 5,8 C 17,7 km/h (3 Bft) 99,13 %
08.02.2016 21:35 6,4 C 86 % 1006,9 hPa 0,0 l/m 5,6 km/h (1 Bft) S 186 0 min 0,000 mm 0,0 UV-I 0 W/m 4,2 C 6,4 C 9,7 km/h (2 Bft) 96,49 %
08.02.2016 21:40 6,4 C 86 % 1006,7 hPa 0,0 l/m 5,5 km/h (1 Bft) S-SO 160 0 min 0,000 mm 0,0 UV-I 0 W/m 4,2 C 6,4 C 11,3 km/h (2 Bft) 95,04 %
08.02.2016 21:45 6,5 C 86 % 1006,6 hPa 0,0 l/m 3,5 km/h (1 Bft) S-SO 159 0 min 0,000 mm 0,0 UV-I 0 W/m 4,3 C 6,5 C 11,3 km/h (2 Bft) 96,49 %
08.02.2016 21:50 6,6 C 86 % 1006,7 hPa 0,0 l/m 2,2 km/h (1 Bft) S-SO 160 0 min 0,000 mm 0,0 UV-I 0 W/m 4,4 C 6,6 C 6,4 km/h (2 Bft) 97,58 %
08.02.2016 21:55 6,6 C 85 % 1006,8 hPa 0,0 l/m 4,8 km/h (1 Bft) S 186 0 min 0,000 mm 0,0 UV-I 0 W/m 4,3 C 6,6 C 9,7 km/h (2 Bft) 97,46 %
08.02.2016 22:00 6,6 C 86 % 1006,7 hPa 0,0 l/m 2,8 km/h (1 Bft) S-SO 148 0 min 0,000 mm 0,0 UV-I 0 W/m 4,4 C 6,6 C 8,0 km/h (2 Bft) 96,58 %
08.02.2016 22:05 6,4 C 86 % 1006,8 hPa 0,0 l/m 3,7 km/h (1 Bft) SW 228 0 min 0,000 mm 0,0 UV-I 0 W/m 4,2 C 6,4 C 8,0 km/h (2 Bft) 98,17 %
08.02.2016 22:10 6,3 C 87 % 1006,9 hPa 0,0 l/m 7,8 km/h (2 Bft) S-SW 200 0 min 0,000 mm 0,0 UV-I 0 W/m 4,3 C 5,1 C 12,9 km/h (3 Bft) 98,21 %
08.02.2016 22:15 6,4 C 87 % 1007,0 hPa 0,0 l/m 6,9 km/h (2 Bft) S-SW 204 0 min 0,000 mm 0,0 UV-I 0 W/m 4,4 C 6,0 C 12,9 km/h (3 Bft) 98,37 %
08.02.2016 22:20 6,6 C 86 % 1007,1 hPa 0,0 l/m 7,3 km/h (2 Bft) S-SO 154 0 min 0,000 mm 0,0 UV-I 0 W/m 4,4 C 5,8 C 16,1 km/h (3 Bft) 98,43 %
08.02.2016 22:25 6,7 C 85 % 1007,5 hPa 0,0 l/m 8,8 km/h (2 Bft) W-SW 244 0 min 0,000 mm 0,0 UV-I 0 W/m 4,4 C 4,8 C 17,7 km/h (3 Bft) 100,00 %
08.02.2016 22:30 6,7 C 86 % 1007,7 hPa 0,0 l/m 6,5 km/h (2 Bft) S-SW 199 0 min 0,000 mm 0,0 UV-I 0 W/m 4,5 C 6,6 C 9,7 km/h (2 Bft) 100,00 %
08.02.2016 22:35 6,6 C 86 % 1007,6 hPa 0,0 l/m 5,7 km/h (1 Bft) S-SW 206 0 min 0,000 mm 0,0 UV-I 0 W/m 4,4 C 6,6 C 9,7 km/h (2 Bft) 100,00 %
08.02.2016 22:40 6,5 C 86 % 1008,3 hPa 0,0 l/m 5,7 km/h (1 Bft) W-SW 255 0 min 0,000 mm 0,0 UV-I 0 W/m 4,3 C 6,5 C 12,9 km/h (3 Bft) 100,00 %
08.02.2016 22:45 6,9 C 85 % 1008,4 hPa 0,2 l/m 15,4 km/h (3 Bft) W 263 0 min 0,000 mm 0,0 UV-I 0 W/m 4,6 C 1,2 C 43,5 km/h (6 Bft) 99,15 %
08.02.2016 22:50 7,6 C 84 % 1008,7 hPa 0,0 l/m 24,0 km/h (4 Bft) W 261 0 min 0,000 mm 0,0 UV-I 0 W/m 5,1 C -1,1 C 37,0 km/h (5 Bft) 99,17 %
08.02.2016 22:55 8,2 C 82 % 1008,8 hPa 0,0 l/m 25,8 km/h (4 Bft) W-SW 252 0 min 0,000 mm 0,0 UV-I 0 W/m 5,3 C -0,8 C 41,8 km/h (6 Bft) 99,15 %
08.02.2016 23:00 8,3 C 81 % 1009,0 hPa 0,0 l/m 15,4 km/h (3 Bft) W 275 0 min 0,025 mm 0,0 UV-I 0 W/m 5,2 C 2,9 C 27,4 km/h (4 Bft) 99,15 %
08.02.2016 23:05 7,5 C 82 % 1008,8 hPa 0,0 l/m 11,1 km/h (2 Bft) NW 306 0 min 0,000 mm 0,0 UV-I 0 W/m 4,6 C 4,2 C 29,0 km/h (5 Bft) 100,00 %
08.02.2016 23:10 6,8 C 84 % 1008,5 hPa 0,0 l/m 8,1 km/h (2 Bft) W-NW 296 0 min 0,000 mm 0,0 UV-I 0 W/m 4,3 C 5,4 C 20,9 km/h (4 Bft) 99,17 %
08.02.2016 23:15 6,3 C 85 % 1008,3 hPa 0,0 l/m 8,7 km/h (2 Bft) N 355 0 min 0,000 mm 0,0 UV-I 0 W/m 4,0 C 4,4 C 19,3 km/h (3 Bft) 100,00 %
08.02.2016 23:18 6,1 C 86 % 1008,3 hPa 0,0 l/m 5,3 km/h (1 Bft) N-NO 15 0 min 0,000 mm 0,0 UV-I 0 W/m 3,9 C 6,1 C 11,3 km/h (2 Bft) 98,11 %
08.02.2016 23:19 6,1 C 87 % 1008,3 hPa 0,0 l/m 5,2 km/h (1 Bft) NW 315 0 min 0,000 mm 0,0 UV-I 0 W/m 4,1 C 6,1 C 11,3 km/h (2 Bft) 100,00 %
08.02.2016 23:20 5,9 C 87 % 1008,3 hPa 0,0 l/m 9,4 km/h (2 Bft) NW 315 0 min 0,000 mm 0,0 UV-I 0 W/m 3,9 C 3,5 C 20,9 km/h (4 Bft) 100,00 %
08.02.2016 23:21 5,9 C 87 % 1008,4 hPa 0,0 l/m 4,9 km/h (1 Bft) W-NW 300 0 min 0,000 mm 0,0 UV-I 0 W/m 3,9 C 5,9 C 8,0 km/h (2 Bft) 100,00 %
08.02.2016 23:22 5,9 C 88 % 1008,5 hPa 0,0 l/m 10,3 km/h (2 Bft) W 279 0 min 0,000 mm 0,0 UV-I 0 W/m 4,1 C 2,9 C 17,7 km/h (3 Bft) 100,00 %
08.02.2016 23:23 5,9 C 88 % 1008,5 hPa 0,0 l/m 5,4 km/h (1 Bft) N-NW 340 0 min 0,000 mm 0,0 UV-I 0 W/m 4,1 C 5,9 C 8,0 km/h (2 Bft) 100,00 %
08.02.2016 23:24 5,9 C 88 % 1008,7 hPa 0,0 l/m 6,1 km/h (2 Bft) W 272 0 min 0,000 mm 0,0 UV-I 0 W/m 4,1 C 5,9 C 19,3 km/h (3 Bft) 100,00 %
08.02.2016 23:25 5,8 C 88 % 1008,8 hPa 0,0 l/m 2,8 km/h (1 Bft) NW 318 0 min 0,000 mm 0,0 UV-I 0 W/m 4,0 C 5,8 C 4,8 km/h (1 Bft) 100,00 %
08.02.2016 23:26 5,8 C 88 % 1008,7 hPa 0,0 l/m 1,9 km/h (1 Bft) NW 312 0 min 0,000 mm 0,0 UV-I 0 W/m 4,0 C 5,8 C 3,2 km/h (1 Bft) 96,15 %
08.02.2016 23:27 5,8 C 88 % 1008,7 hPa 0,0 l/m 6,1 km/h (2 Bft) W 271 0 min 0,000 mm 0,0 UV-I 0 W/m 4,0 C 5,8 C 11,3 km/h (2 Bft) 100,00 %
08.02.2016 23:28 5,8 C 89 % 1008,9 hPa 0,0 l/m 5,4 km/h (1 Bft) NW 314 0 min 0,000 mm 0,0 UV-I 0 W/m 4,1 C 5,8 C 9,7 km/h (2 Bft) 100,00 %
08.02.2016 23:29 5,8 C 89 % 1009,0 hPa 0,0 l/m 8,7 km/h (2 Bft) N-NW 331 0 min 0,000 mm 0,0 UV-I 0 W/m 4,1 C 3,9 C 17,7 km/h (3 Bft) 100,00 %
08.02.2016 23:30 5,8 C 89 % 1009,0 hPa 0,0 l/m 7,7 km/h (2 Bft) W-NW 282 0 min 0,000 mm 0,0 UV-I 0 W/m 4,1 C 4,7 C 12,9 km/h (3 Bft) 100,00 %
08.02.2016 23:31 5,8 C 89 % 1009,1 hPa 0,0 l/m 11,3 km/h (2 Bft) NW 313 0 min 0,000 mm 0,0 UV-I 0 W/m 4,1 C 2,1 C 20,9 km/h (4 Bft) 100,00 %
08.02.2016 23:32 5,8 C 89 % 1009,1 hPa 0,0 l/m 12,0 km/h (2 Bft) W 281 0 min 0,000 mm 0,0 UV-I 0 W/m 4,1 C 1,7 C 20,9 km/h (4 Bft) 95,83 %
08.02.2016 23:33 5,8 C 89 % 1009,2 hPa 0,0 l/m 11,3 km/h (2 Bft) W-NW 289 0 min 0,000 mm 0,0 UV-I 0 W/m 4,1 C 2,1 C 19,3 km/h (3 Bft) 100,00 %
08.02.2016 23:34 5,8 C 89 % 1009,3 hPa 0,0 l/m 14,3 km/h (3 Bft) W-NW 286 0 min 0,000 mm 0,0 UV-I 0 W/m 4,1 C 0,4 C 29,0 km/h (5 Bft) 96,30 %
08.02.2016 23:35 5,8 C 89 % 1009,2 hPa 0,0 l/m 11,2 km/h (2 Bft) W-SW 240 0 min 0,000 mm 0,0 UV-I 0 W/m 4,1 C 2,2 C 17,7 km/h (3 Bft) 100,00 %
08.02.2016 23:36 5,8 C 89 % 1009,3 hPa 0,0 l/m 7,5 km/h (2 Bft) W 279 0 min 0,000 mm 0,0 UV-I 0 W/m 4,1 C 4,9 C 11,3 km/h (2 Bft) 97,44 %
08.02.2016 23:37 5,8 C 89 % 1009,3 hPa 0,0 l/m 8,0 km/h (2 Bft) W-SW 257 0 min 0,000 mm 0,0 UV-I 0 W/m 4,1 C 4,4 C 12,9 km/h (3 Bft) 100,00 %
08.02.2016 23:38 5,8 C 89 % 1009,4 hPa 0,0 l/m 7,4 km/h (2 Bft) W 260 0 min 0,000 mm 0,0 UV-I 0 W/m 4,1 C 4,9 C 11,3 km/h (2 Bft) 96,30 %
08.02.2016 23:39 5,8 C 89 % 1009,4 hPa 0,0 l/m 6,6 km/h (2 Bft) W 262 0 min 0,000 mm 0,0 UV-I 0 W/m 4,1 C 5,7 C 11,3 km/h (2 Bft) 96,15 %
08.02.2016 23:40 5,8 C 89 % 1009,5 hPa 0,0 l/m 13,2 km/h (3 Bft) W-NW 284 0 min 0,000 mm 0,0 UV-I 0 W/m 4,1 C 1,0 C 16,1 km/h (3 Bft) 96,30 %
08.02.2016 23:41 5,8 C 89 % 1009,4 hPa 0,2 l/m 7,8 km/h (2 Bft) W 271 0 min 0,000 mm 0,0 UV-I 0 W/m 4,1 C 4,6 C 12,9 km/h (3 Bft) 91,67 %
08.02.2016 23:42 5,8 C 89 % 1009,4 hPa 0,0 l/m 11,0 km/h (2 Bft) W-SW 258 0 min 0,000 mm 0,0 UV-I 0 W/m 4,1 C 2,3 C 17,7 km/h (3 Bft) 94,12 %
08.02.2016 23:43 5,8 C 89 % 1009,5 hPa 0,0 l/m 8,1 km/h (2 Bft) W-NW 289 0 min 0,000 mm 0,0 UV-I 0 W/m 4,1 C 4,4 C 14,5 km/h (3 Bft) 97,56 %
08.02.2016 23:44 5,8 C 90 % 1009,7 hPa 0,0 l/m 5,7 km/h (1 Bft) W-NW 288 0 min 0,000 mm 0,0 UV-I 0 W/m 4,3 C 5,8 C 12,9 km/h (3 Bft) 100,00 %
08.02.2016 23:45 5,8 C 90 % 1009,5 hPa 0,0 l/m 5,9 km/h (2 Bft) W 274 0 min 0,000 mm 0,0 UV-I 0 W/m 4,3 C 5,8 C 9,7 km/h (2 Bft) 91,67 %
08.02.2016 23:46 5,8 C 90 % 1009,6 hPa 0,0 l/m 5,0 km/h (1 Bft) W 279 0 min 0,000 mm 0,0 UV-I 0 W/m 4,3 C 5,8 C 9,7 km/h (2 Bft) 100,00 %
08.02.2016 23:47 5,8 C 91 % 1009,4 hPa 0,0 l/m 9,2 km/h (2 Bft) W 260 0 min 0,000 mm 0,0 UV-I 0 W/m 4,4 C 3,5 C 14,5 km/h (3 Bft) 91,67 %
08.02.2016 23:48 5,7 C 91 % 1009,2 hPa 0,2 l/m 9,2 km/h (2 Bft) W 273 0 min 0,000 mm 0,0 UV-I 0 W/m 4,3 C 3,4 C 12,9 km/h (3 Bft) 100,00 %
08.02.2016 23:49 5,7 C 91 % 1009,2 hPa 0,0 l/m 5,9 km/h (2 Bft) W-SW 246 0 min 0,000 mm 0,0 UV-I 0 W/m 4,3 C 5,7 C 11,3 km/h (2 Bft) 83,33 %
08.02.2016 23:50 5,7 C 91 % 1009,3 hPa 0,0 l/m 6,0 km/h (2 Bft) W-SW 242 0 min 0,000 mm 0,0 UV-I 0 W/m 4,3 C 5,7 C 8,0 km/h (2 Bft) 100,00 %
08.02.2016 23:51 5,7 C 91 % 1009,3 hPa 0,0 l/m 6,2 km/h (2 Bft) W-SW 255 0 min 0,000 mm 0,0 UV-I 0 W/m 4,3 C 5,7 C 8,0 km/h (2 Bft) 96,30 %
08.02.2016 23:52 5,7 C 91 % 1009,4 hPa 0,0 l/m 6,3 km/h (2 Bft) W-SW 252 0 min 0,000 mm 0,0 UV-I 0 W/m 4,3 C 5,7 C 11,3 km/h (2 Bft) 95,65 %
08.02.2016 23:53 5,7 C 91 % 1009,4 hPa 0,0 l/m 6,5 km/h (2 Bft) SW 229 0 min 0,000 mm 0,0 UV-I 0 W/m 4,3 C 5,6 C 11,3 km/h (2 Bft) 100,00 %
08.02.2016 23:54 5,7 C 91 % 1009,4 hPa 0,0 l/m 6,8 km/h (2 Bft) W-SW 243 0 min 0,000 mm 0,0 UV-I 0 W/m 4,3 C 5,4 C 11,3 km/h (2 Bft) 96,55 %
08.02.2016 23:55 5,7 C 91 % 1009,4 hPa 0,0 l/m 7,7 km/h (2 Bft) SW 228 0 min 0,000 mm 0,0 UV-I 0 W/m 4,3 C 4,6 C 9,7 km/h (2 Bft) 100,00 %
08.02.2016 23:56 5,6 C 91 % 1009,3 hPa 0,0 l/m 4,9 km/h (1 Bft) S-SW 198 0 min 0,000 mm 0,0 UV-I 0 W/m 4,2 C 5,6 C 6,4 km/h (2 Bft) 92,86 %
08.02.2016 23:57 5,6 C 91 % 1009,2 hPa 0,0 l/m 3,0 km/h (1 Bft) W 263 0 min 0,000 mm 0,0 UV-I 0 W/m 4,2 C 5,6 C 4,8 km/h (1 Bft) 100,00 %
08.02.2016 23:58 5,6 C 91 % 1009,2 hPa 0,0 l/m 4,2 km/h (1 Bft) W 264 0 min 0,000 mm 0,0 UV-I 0 W/m 4,2 C 5,6 C 9,7 km/h (2 Bft) 95,65 %
08.02.2016 23:59 5,6 C 92 % 1009,3 hPa 0,0 l/m 5,9 km/h (2 Bft) W-SW 250 0 min 0,000 mm 0,0 UV-I 0 W/m 4,4 C 5,6 C 6,4 km/h (2 Bft) 100,00 %
_ Min-Zeit 07:55 14:05 17:05 - 07:40 - - - - - - 07:40 22:50 19:10 23:49
Minimum _ 4,6 C 57 % 1003,0 hPa - 0,7 km/h (0 Bft) - - - - - - 2,1 C -1,1 C 3,2 km/h (1 Bft) 83,33 %
_ Max-Zeit 14:05 23:59 02:55 22:45 22:55 - - 10:20 12:00 11:50 11:50 15:25 14:35 22:45 00:10
Maximum _ 12,3 C 92 % 1014,2 hPa 0,2 l/m 25,8 km/h
W-SW (4 Bft)
- - 10 min 0,229 mm 1,5 UV-I 483 W/m 6,0 C 12,2 C 43,5 km/h
W (6 Bft)
100,00 %
Durchschnitt _ 7,3 C 79 % 1009,0 hPa #0,6 l/m 7,8 km/h (2 Bft) O-NO - #6:15 h #1,473 mm 1,0 UV-I 228 W/m 3,8 C 5,7 C 14,1 km/h (3 Bft) 98,33 %